STARLINK-4293, 52989

Orbit data source: Space-Track

STARLINK-4293, 52989 is a payload satellite owned by SpaceX/Seattle (US) in LEO that was launched on Thu, 07 Jul 2022 UTC via an FALCON 9 launch vehicle from the Air Force Eastern Test Range (AFETR). Payload-class satellites include a variety of spacecraft equipped with specific instruments for various scientific and technological missions. These include communications satellites like Starlink; space stations such as the ISS; scientific satellites like the Hubble; Earth observation satellites from companies like Planet Labs, Umbra, and HawkEye 360; GPS; miniature CubeSats for education and research; and military/defense satellites.

Loading next visibility...
Identifier
52989, 2022-076D
Orbit
LEO
Country
Flag of USUS
Related business
Manufacturer
SpaceX/Seattle
Mission
Partially operational Commercial Communications
Bus & Motor
STARLINK, Unknown motor
Mass
297 kg wet, ~275 kg dry
Launch date (UTC)
2022-07-07 (4 years ago)
Launch vehicle
FALCON 9
Launch site
Air Force Eastern Test Range (AFETR)
Object type
Payload
Rocket body
Debris
Shape & HBR
Box + 1 Pan, 10.1 m
Radar Cross Section
13.562 m², Large (>1 m²)

Expand to show TLE details & history
Last TLE update: 2 days ago

TLE from 2 days ago
0 STARLINK-4293
1 52989U 22076D   26171.41668980  .00174231  00000-0  35408-2 0  9999
2 52989  53.2172 352.3512 0001238  78.7207 324.9174 15.45199705  5855
Epoch: 2026-06-20T10:00Z
TLE epoch observation values (Epoch: 2026-06-20T10:00:01.998Z)
Latitude
33.65597°
Longitude
-36.6185°
Altitude
432.436 km
Speed
7.657 km/s
True Right ascension
01h 28m 05s
True Declination
33° 29' 24"
Sunlit
Object was in daylight at epoch
Visualization orbit readout
Latitude
Unknown
Longitude
Unknown
Altitude
Unknown
Speed
Unknown
Apparent Right ascension
Unknown
Apparent Declination
Unknown
Sunlit
N/A
Visualization observer readout
Local Sidereal Time
21:45:17
Azimuth
Unknown
Elevation
Unknown
Doppler factor
Unknown
Orbital elements
Apogee altitude
431.883 km
Perigee altitude
430.197 km
Semi-major axis
6,809.177 km
Eccentricity
0.00012
Inclination
53.2172°
RAAN
352.3512°
Arg. of periapsis
78.7207°
True anomaly
324.90925°
Mean anomaly
324.9174°
Eccentric anomaly
324.91332°
Mean motion
3.86279 °/min
Orbital period
93.2 mins
BSTAR
0.0035408
Loading maneuver chart data...
Computing Atmospheric mass density...
Loading historical data...
Loading historical data...
Loading historical data...
Loading historical data...
Loading historical data...
Loading historical data...
Loading historical data...

Documentation

Showing up to 5 results
|